Temp
-5 -5 -5 -5 -5 -5 -5 -5 -5 -5 -6 -6 -6 -6 -6 -5 -5 -5 -5 -5 -5 -5 -5 -4 -4 -4 -3 -3 -3 -3 -3 -4 -4 -5 -6 -6 -7 -7 -7 -8 -7 -8 -7 -8 -8 -7 -5
-5 -5 -5 -5 -5 -5 -5 -5 -5 -5 -5 -6 -6 -6 -6 -6 -5 -5 -5 -5 -5 -5 -5 -5 -4 -4 -4 -4 -3 -3 -4 -4 -4 -5 -7 -6 -8 -7 -7 -7 -8 -8 -8 -8 -8 -7 -6
-6 -5 -5 -5 -5 -5 -5 -5 -5 -5 -5 -5 -6 -6 -6 -6 -6 -6 -6 -5 -5 -5 -5 -5 -5 -5 -4 -4 -4 -4 -4 -4 -4 -4 -6 -7 -7 -7 -7 -7 -8 -8 -8 -8 -8 -8 -8
-6 -6 -6 -5 -5 -5 -5 -5 -5 -5 -5 -5 -5 -5 -6 -6 -6 -6 -6 -6 -5 -5 -5 -5 -5 -5 -5 -4 -4 -4 -4 -4 -4 -4 -5 -6 -7 -7 -8 -7 -7 -7 -7 -7 -6 -7 -6
-6 -6 -6 -6 -5 -5 -5 -5 -5 -5 -5 -5 -5 -5 -5 -5 -6 -6 -6 -6 -5 -5 -5 -5 -5 -5 -5 -5 -4 -4 -4 -4 -4 -5 -5 -6 -6 -7 -7 -7 -7 -7 -7 -7 -6 -6 -7
-7 -7 -6 -6 -6 -6 -5 -5 -5 -5 -5 -5 -5 -5 -5 -5 -5 -5 -5 -5 -5 -5 -5 -5 -5 -5 -5 -5 -4 -4 -5 -5 -5 -5 -5 -6 -6 -7 -7 -8 -7 -7 -6 -6 -7 -7 -8
-8 -7 -7 -6 -6 -6 -6 -5 -5 -5 -5 -5 -5 -5 -5 -5 -5 -5 -5 -5 -5 -5 -5 -5 -5 -5 -5 -5 -5 -5 -5 -5 -5 -5 -5 -6 -6 -7 -8 -7 -7 -6 -6 -6 -7 -7 -6
-8 -8 -7 -7 -7 -6 -6 -6 -5 -5 -5 -5 -5 -5 -5 -5 -5 -5 -5 -5 -5 -5 -5 -5 -5 -5 -5 -5 -5 -5 -5 -5 -5 -5 -6 -8 -7 -7 -6 -6 -8 -7 -6 -7 -8 -7 -6
-9 -8 -8 -7 -7 -7 -7 -6 -6 -5 -5 -5 -5 -5 -5 -5 -5 -5 -5 -5 -5 -5 -5 -5 -5 -5 -5 -5 -5 -5 -5 -5 -5 -5 -8 -8 -7 -7 -7 -7 -7 -7 -7 -7 -7 -7 -6
-9 -8 -8 -8 -7 -7 -7 -7 -6 -6 -6 -5 -5 -5 -5 -5 -5 -5 -5 -5 -6 -5 -5 -5 -5 -5 -5 -5 -5 -5 -5 -5 -5 -5 -7 -8 -8 -7 -7 -6 -7 -7 -7 -7 -7 -7 -6
-9 -9 -8 -8 -8 -7 -7 -7 -7 -6 -6 -6 -6 -5 -5 -5 -5 -5 -6 -6 -6 -6 -6 -6 -5 -5 -5 -5 -6 -5 -5 -6 -6 -8 -8 -7 -7 -7 -8 -7 -7 -7 -7 -7 -7 -7 -7
-10 -9 -9 -8 -8 -8 -7 -7 -7 -7 -6 -6 -6 -5 -5 -5 -5 -6 -6 -6 -6 -6 -7 -7 -5 -6 -6 -5 -5 -6 -5 -6 -6 -7 -8 -7 -7 -7 -6 -8 -7 -7 -8 -7 -7 -7 -7
-10 -9 -9 -9 -8 -8 -8 -7 -7 -7 -6 -6 -6 -6 -6 -6 -6 -6 -6 -6 -6 -6 -8 -8 -6 -6 -6 -6 -6 -6 -5 -6 -6 -7 -7 -6 -8 -8 -8 -7 -8 -8 -8 -7 -7 -6 -7
-10 -10 -9 -9 -9 -8 -8 -7 -7 -7 -7 -7 -6 -6 -6 -6 -6 -6 -6 -6 -6 -7 -7 -8 -8 -6 -6 -6 -6 -6 -6 -6 -6 -7 -8 -8 -8 -7 -8 -8 -7 -7 -7 -7 -7 -6 -7
-11 -10 -10 -9 -9 -9 -8 -8 -8 -7 -7 -7 -7 -7 -6 -6 -6 -6 -6 -6 -7 -7 -9 -9 -9 -8 -6 -6 -6 -8 -6 -6 -6 -7 -8 -8 -8 -8 -7 -8 -7 -8 -7 -7 -7 -6 -5
-11 -11 -10 -10 -9 -9 -9 -8 -8 -8 -8 -8 -8 -7 -7 -7 -6 -6 -6 -7 -8 -10 -10 -8 -8 -9 -9 -8 -8 -9 -9 -7 -8 -8 -7 -8 -7 -7 -7 -8 -7 -7 -7 -7 -6 -6 -5
-12 -11 -11 -11 -10 -10 -9 -9 -9 -9 -9 -8 -8 -8 -8 -7 -7 -7 -7 -8 -8 -8 -7 -7 -8 -9 -9 -8 -8 -8 -8 -8 -9 -8 -8 -8 -8 -7 -7 -8 -7 -7 -8 -7 -7 -6 -5
-12 -12 -12 -11 -11 -10 -10 -10 -9 -9 -9 -9 -8 -8 -8 -8 -8 -8 -8 -8 -8 -10 -7 -8 -8 -8 -9 -8 -8 -8 -8 -8 -8 -8 -8 -7 -8 -7 -7 -7 -8 -7 -7 -7 -7 -6 -6
-13 -13 -12 -12 -11 -11 -10 -10 -10 -10 -9 -9 -9 -9 -9 -9 -9 -9 -9 -9 -10 -8 -7 -8 -8 -8 -8 -9 -9 -8 -9 -8 -8 -9 -9 -7 -7 -7 -8 -7 -8 -7 -7 -7 -6 -6 -6
-13 -13 -13 -12 -12 -11 -11 -11 -10 -10 -10 -10 -10 -9 -9 -9 -9 -9 -10 -11 -9 -8 -8 -8 -8 -9 -10 -9 -9 -9 -9 -8 -9 -8 -8 -9 -7 -8 -7 -7 -7 -7 -7 -7 -7 -6 -6
-13 -13 -13 -13 -12 -12 -11 -11 -11 -10 -10 -10 -10 -10 -10 -11 -10 -10 -10 -9 -9 -10 -9 -9 -9 -8 -9 -10 -9 -9 -9 -9 -8 -7 -7 -6 -6 -7 -7 -8 -8 -7 -7 -6 -7 -6 -7
-13 -13 -13 -13 -13 -12 -12 -12 -11 -11 -11 -10 -10 -10 -10 -10 -10 -10 -9 -9 -9 -10 -11 -10 -9 -9 -9 -9 -9 -9 -9 -9 -8 -7 -6 -6 -6 -7 -8 -8 -8 -6 -7 -8 -7 -7 -7
-13 -13 -13 -13 -13 -12 -12 -12 -11 -11 -11 -10 -11 -10 -11 -11 -11 -10 -11 -12 -12 -12 -12 -11 -11 -10 -10 -10 -9 -9 -9 -9 -9 -8 -7 -7 -7 -6 -7 -8 -7 -7 -7 -7 -7 -7 -7
-13 -13 -13 -13 -13 -13 -12 -12 -12 -11 -11 -11 -11 -11 -11 -11 -11 -13 -12 -12 -11 -11 -10 -11 -11 -9 -10 -9 -9 -9 -9 -9 -9 -9 -9 -7 -7 -7 -7 -8 -8 -7 -7 -7 -8 -8 -7
-13 -13 -13 -13 -13 -13 -12 -12 -12 -12 -12 -11 -11 -11 -11 -11 -11 -11 -12 -11 -11 -10 -10 -10 -10 -9 -9 -9 -10 -9 -9 -10 -9 -10 -9 -9 -8 -9 -8 -8 -8 -8 -8 -8 -8 -8 -8
-13 -13 -13 -13 -13 -13 -13 -12 -12 -12 -12 -12 -12 -12 -12 -12 -11 -10 -11 -11 -11 -11 -11 -11 -10 -10 -9 -9 -9 -10 -9 -9 -9 -9 -9 -9 -9 -9 -8 -8 -8 -7 -8 -8 -7 -8 -7
-13 -13 -14 -13 -13 -13 -13 -13 -12 -12 -12 -12 -12 -12 -12 -12 -11 -11 -11 -10 -10 -11 -11 -11 -11 -11 -10 -9 -10 -10 -10 -8 -9 -9 -9 -9 -8 -8 -9 -9 -9 -8 -6 -9 -9 -8 -8
-13 -13 -14 -13 -13 -13 -13 -12 -12 -12 -12 -12 -12 -12 -12 -12 -11 -12 -11 -10 -11 -12 -11 -11 -11 -12 -11 -10 -10 -9 -9 -9 -9 -9 -9 -9 -9 -9 -10 -9 -9 -9 -8 -9 -9 -9 -8
-13 -13 -14 -13 -13 -13 -13 -13 -13 -12 -12 -12 -12 -12 -12 -12 -12 -12 -11 -11 -11 -11 -12 -12 -12 -12 -10 -10 -10 -10 -10 -10 -9 -9 -10 -9 -10 -9 -9 -8 -9 -8 -6 -8 -8 -8 -10
Height
5879 5881 5882 5883 5884 5885 5885 5885 5885 5886 5887 5889 5891 5894 5895 5897 5899 5901 5903 5904 5906 5907 5908 5908 5909 5909 5910 5911 5911 5910 5911 5911 5912 5913 5915 5918 5923 5928 5930 5935 5936 5934 5931 5928 5927 5923 5921
5875 5877 5878 5880 5881 5882 5883 5884 5885 5886 5887 5889 5891 5893 5895 5897 5899 5900 5902 5903 5905 5906 5907 5908 5908 5909 5910 5911 5911 5911 5911 5911 5912 5913 5917 5918 5923 5928 5930 5935 5934 5935 5932 5929 5928 5925 5925
5869 5872 5875 5876 5878 5879 5881 5882 5883 5885 5886 5888 5890 5892 5894 5896 5898 5900 5901 5903 5904 5905 5906 5907 5908 5908 5909 5910 5910 5911 5911 5911 5912 5913 5915 5920 5920 5926 5935 5936 5933 5935 5931 5929 5930 5926 5926
5864 5867 5869 5872 5874 5875 5878 5880 5881 5883 5884 5886 5888 5891 5893 5895 5897 5898 5900 5901 5903 5904 5905 5906 5907 5908 5908 5909 5910 5910 5910 5911 5912 5913 5916 5916 5922 5923 5928 5932 5933 5926 5922 5927 5927 5920 5921
5859 5861 5864 5867 5869 5871 5874 5876 5878 5880 5882 5884 5886 5888 5890 5893 5894 5896 5897 5899 5900 5901 5903 5905 5906 5907 5908 5909 5909 5910 5910 5911 5912 5914 5916 5919 5923 5922 5931 5932 5934 5934 5924 5926 5927 5922 5916
5852 5855 5858 5861 5864 5866 5869 5871 5874 5876 5878 5880 5883 5885 5887 5889 5891 5893 5895 5896 5897 5898 5900 5902 5904 5906 5907 5908 5908 5909 5910 5910 5911 5913 5916 5918 5921 5923 5929 5931 5931 5923 5927 5926 5921 5924 5929
5846 5849 5852 5855 5858 5861 5863 5866 5869 5871 5874 5876 5878 5881 5883 5885 5887 5888 5891 5892 5895 5896 5897 5899 5902 5902 5903 5906 5907 5908 5909 5910 5911 5912 5914 5918 5920 5925 5924 5925 5922 5928 5931 5930 5938 5929 5927
5840 5843 5846 5849 5852 5855 5858 5860 5863 5866 5869 5872 5874 5876 5878 5881 5883 5884 5886 5887 5890 5893 5893 5895 5897 5898 5900 5902 5904 5906 5908 5909 5910 5911 5913 5918 5919 5924 5921 5921 5928 5929 5932 5935 5928 5929 5929
5834 5837 5841 5843 5847 5850 5853 5855 5857 5860 5863 5866 5868 5871 5873 5876 5878 5880 5881 5883 5885 5887 5889 5890 5893 5895 5897 5899 5900 5902 5904 5906 5907 5909 5912 5915 5922 5927 5926 5926 5928 5932 5931 5928 5931 5927 5928
5829 5831 5835 5838 5841 5844 5847 5850 5852 5854 5857 5860 5863 5865 5868 5870 5874 5874 5876 5879 5881 5882 5883 5886 5888 5891 5893 5894 5896 5898 5900 5903 5905 5907 5909 5916 5916 5915 5924 5925 5929 5931 5929 5929 5929 5928 5927
5823 5826 5829 5832 5835 5838 5841 5844 5846 5848 5851 5854 5856 5859 5862 5864 5867 5869 5872 5875 5876 5878 5881 5877 5884 5886 5889 5892 5891 5894 5896 5897 5901 5906 5910 5914 5915 5913 5921 5924 5925 5927 5923 5925 5928 5926 5925
5817 5820 5823 5826 5829 5832 5836 5838 5841 5843 5845 5848 5851 5853 5856 5859 5861 5864 5866 5870 5873 5876 5877 5875 5879 5882 5885 5888 5888 5890 5892 5894 5898 5900 5904 5908 5910 5919 5919 5921 5922 5925 5924 5923 5925 5927 5923
5811 5813 5816 5819 5823 5826 5830 5832 5835 5837 5840 5843 5845 5847 5850 5852 5855 5857 5860 5864 5869 5872 5874 5874 5874 5878 5881 5884 5885 5886 5889 5890 5892 5896 5899 5904 5906 5911 5917 5917 5918 5920 5921 5924 5925 5924 5922
5805 5807 5811 5814 5817 5820 5823 5826 5829 5831 5834 5837 5839 5842 5844 5847 5849 5852 5855 5859 5863 5871 5871 5875 5871 5874 5877 5880 5882 5883 5885 5887 5889 5892 5897 5900 5905 5907 5911 5912 5917 5919 5920 5923 5920 5922 5917
5799 5802 5805 5808 5811 5814 5817 5820 5823 5826 5829 5832 5834 5836 5838 5841 5843 5846 5850 5854 5860 5865 5869 5871 5870 5871 5874 5876 5879 5881 5882 5884 5887 5890 5895 5902 5903 5905 5905 5908 5910 5916 5916 5921 5920 5920 5925
5793 5797 5800 5803 5806 5808 5811 5814 5818 5821 5824 5826 5829 5832 5834 5836 5838 5841 5845 5850 5853 5856 5859 5861 5866 5871 5873 5874 5877 5880 5881 5882 5884 5887 5891 5898 5904 5906 5906 5905 5905 5908 5917 5918 5923 5923 5923
5788 5791 5794 5797 5800 5802 5806 5809 5812 5815 5818 5822 5825 5827 5829 5831 5833 5836 5840 5844 5847 5848 5851 5857 5862 5868 5872 5875 5877 5878 5881 5883 5883 5887 5888 5893 5900 5905 5904 5900 5904 5906 5910 5913 5917 5919 5920
5783 5786 5789 5792 5794 5797 5801 5804 5807 5811 5814 5817 5820 5822 5825 5826 5829 5831 5835 5838 5841 5844 5845 5851 5856 5859 5863 5872 5876 5877 5878 5881 5882 5882 5886 5888 5894 5900 5901 5901 5904 5907 5910 5912 5915 5916 5915
5777 5780 5784 5787 5790 5793 5795 5799 5803 5806 5809 5812 5815 5818 5820 5822 5824 5827 5830 5833 5835 5836 5841 5846 5850 5856 5859 5864 5871 5874 5874 5878 5879 5877 5882 5884 5889 5894 5897 5900 5900 5902 5905 5908 5912 5913 5907
5771 5775 5779 5782 5785 5788 5790 5794 5798 5802 5805 5808 5811 5813 5815 5817 5819 5822 5824 5828 5829 5832 5836 5840 5845 5849 5854 5858 5863 5869 5871 5871 5871 5873 5875 5879 5885 5889 5895 5899 5900 5900 5902 5904 5906 5910 5904
5765 5769 5773 5776 5780 5783 5786 5789 5793 5797 5800 5802 5804 5806 5808 5810 5814 5817 5819 5821 5823 5827 5830 5835 5838 5842 5847 5854 5860 5865 5868 5869 5865 5867 5870 5874 5879 5885 5891 5888 5890 5901 5899 5900 5904 5907 5906
5759 5763 5767 5771 5774 5778 5781 5784 5788 5791 5794 5796 5798 5803 5806 5806 5807 5811 5814 5816 5818 5822 5828 5830 5833 5839 5846 5849 5858 5864 5866 5868 5862 5863 5866 5869 5874 5879 5884 5883 5889 5889 5896 5894 5902 5903 5903
5752 5756 5761 5765 5769 5772 5776 5779 5782 5785 5788 5790 5794 5796 5800 5802 5804 5807 5810 5808 5810 5817 5816 5823 5830 5833 5839 5849 5840 5838 5849 5850 5862 5860 5862 5865 5869 5873 5876 5882 5888 5889 5893 5895 5897 5898 5901
5746 5750 5754 5759 5763 5767 5771 5773 5777 5780 5782 5785 5788 5790 5793 5795 5798 5802 5800 5800 5806 5792 5810 5816 5823 5825 5830 5831 5833 5842 5844 5845 5853 5857 5859 5862 5865 5869 5874 5878 5878 5887 5883 5885 5886 5890 5893
5740 5744 5749 5754 5758 5762 5765 5768 5771 5774 5778 5780 5782 5785 5787 5789 5790 5793 5791 5792 5787 5803 5808 5813 5818 5821 5825 5833 5839 5842 5842 5843 5848 5849 5854 5859 5864 5867 5871 5873 5876 5878 5877 5878 5878 5886 5886
5733 5738 5743 5748 5752 5756 5760 5763 5766 5769 5772 5774 5777 5779 5782 5783 5784 5786 5789 5791 5796 5801 5806 5810 5813 5819 5823 5828 5835 5839 5835 5839 5839 5845 5833 5854 5856 5861 5860 5862 5860 5864 5864 5873 5871 5876 5874
5726 5732 5737 5742 5746 5751 5755 5758 5761 5764 5766 5769 5772 5773 5775 5778 5780 5782 5782 5787 5792 5792 5791 5792 5789 5812 5819 5824 5827 5830 5830 5819 5824 5828 5841 5842 5845 5842 5847 5853 5853 5857 5857 5856 5861 5867 5867
5719 5725 5730 5735 5740 5745 5749 5753 5756 5759 5762 5765 5767 5768 5770 5773 5776 5776 5780 5785 5788 5786 5789 5802 5797 5810 5815 5819 5823 5813 5820 5820 5820 5830 5836 5842 5840 5841 5849 5846 5845 5847 5849 5849 5850 5850 5853
5712 5718 5724 5729 5734 5739 5744 5748 5752 5754 5757 5760 5763 5764 5766 5768 5771 5773 5775 5780 5784 5785 5794 5799 5804 5805 5808 5811 5807 5807 5811 5818 5820 5820 5829 5831 5838 5841 5840 5841 5840 5842 5848 5831 5837 5833 5843
Wind_Speed
19 16 15 13 12 10 8 4 3 4 9 12 12 10 11 11 11 11 11 10 9 8 6 5 4 4 2 1 2 3 3 7 10 13 16 19 22 1 4 7 8 6 6 6 4 9 3
23 20 18 15 13 12 10 8 5 5 9 12 13 12 10 10 11 11 11 11 10 8 7 6 5 3 4 3 1 1 3 6 10 15 17 18 13 11 17 9 13 4 4 8 3 10 10
24 23 22 19 16 14 13 11 10 8 8 11 14 14 13 12 11 11 10 10 10 9 7 6 5 4 4 3 4 2 2 6 9 12 17 7 30 23 9 8 7 6 7 6 4 9 7
26 25 24 22 20 18 16 15 13 11 9 10 12 13 16 15 13 13 12 12 11 10 9 8 7 6 5 4 3 2 3 5 6 8 1 21 24 26 7 13 3 17 21 10 8 6 13
26 25 25 24 23 21 19 17 16 14 12 11 11 12 13 15 17 18 18 17 16 14 13 11 9 8 7 6 4 3 5 6 7 9 10 15 19 18 3 4 7 6 21 16 12 20 11
27 26 26 25 24 23 22 20 18 17 15 14 14 14 14 14 16 17 17 18 20 19 17 15 12 11 9 8 8 5 5 7 8 10 12 15 14 13 4 12 19 31 13 3 13 20 16
27 27 26 26 25 24 24 22 21 19 18 17 16 16 16 16 17 18 19 20 19 18 19 20 16 15 12 9 9 8 7 10 11 13 15 15 11 8 22 24 8 12 6 12 8 20 15
27 27 27 27 26 26 25 24 23 22 21 19 19 18 18 17 18 19 21 22 22 19 21 19 19 19 16 14 12 11 11 11 14 14 13 13 9 18 5 9 3 8 6 10 17 19 13
27 27 28 27 27 27 26 26 25 24 23 22 21 20 20 19 19 20 22 23 23 24 25 25 22 21 19 18 17 17 16 13 15 16 17 15 9 19 13 12 9 5 19 3 8 19 6
27 27 27 27 27 27 27 26 25 24 24 23 22 21 21 21 21 22 22 22 21 23 25 26 24 23 23 23 21 20 18 15 18 19 17 16 25 23 21 19 9 15 22 21 12 14 8
27 27 26 26 26 26 26 26 25 24 25 23 23 22 21 22 22 22 21 20 20 19 19 29 23 21 20 18 18 15 15 17 19 18 19 14 20 18 18 13 11 14 12 10 10 12 10
27 27 26 26 25 26 26 25 24 23 23 22 22 22 22 24 24 24 24 22 20 19 16 25 22 19 20 18 19 18 17 18 19 24 24 23 30 20 24 15 21 16 18 10 8 8 18
26 26 26 26 25 26 26 25 24 23 23 22 23 23 22 23 23 24 24 24 23 20 18 19 23 19 19 18 19 20 16 17 21 24 25 26 26 20 20 14 20 18 15 5 18 17 13
25 25 26 25 25 25 24 24 23 22 22 20 22 21 20 21 20 19 20 21 23 16 18 12 17 19 18 17 17 19 19 18 19 21 18 22 24 28 20 32 16 19 17 13 18 12 21
25 25 25 26 25 25 25 24 23 22 21 20 20 19 19 21 20 21 21 20 17 20 13 18 15 15 16 17 16 21 17 19 19 20 20 15 19 19 22 22 27 21 8 9 19 19 17
24 24 24 24 24 24 24 24 22 22 21 19 20 18 17 18 20 22 22 20 24 18 27 30 15 13 15 17 19 21 17 15 18 20 21 18 16 18 22 21 21 26 19 12 13 10 9
24 23 23 23 23 23 23 23 22 22 21 19 21 20 19 18 17 19 19 20 26 30 29 27 22 12 14 17 21 20 18 16 17 20 21 22 16 11 19 25 21 23 19 16 15 16 16
24 24 23 22 21 22 22 22 21 22 21 20 21 21 19 18 17 19 20 22 28 23 30 25 26 27 23 18 20 22 18 20 19 20 25 26 16 12 19 18 21 19 18 11 14 6 18
25 24 23 23 21 21 20 20 19 20 20 20 21 20 18 16 15 17 19 24 28 31 28 24 26 26 28 27 18 21 21 15 21 22 24 22 24 18 20 15 17 21 20 16 21 18 27
26 25 24 22 21 20 20 20 20 19 20 20 21 21 19 18 19 18 19 22 30 28 26 28 28 27 19 27 18 17 18 26 32 26 23 25 30 21 17 15 17 18 24 24 17 13 22
29 26 24 22 21 20 20 22 22 21 21 21 22 23 22 19 20 21 24 25 27 25 30 29 30 32 31 16 16 17 18 22 27 24 24 24 29 27 20 25 23 20 18 12 13 19 19
28 28 25 22 21 20 21 22 22 21 21 23 24 21 23 21 22 22 24 25 26 28 21 24 30 27 22 25 15 15 16 22 28 19 20 23 29 33 24 14 21 22 25 22 18 18 19
28 29 28 25 23 21 20 21 22 20 21 22 20 22 22 23 21 20 13 21 18 23 33 31 21 27 22 21 38 35 30 25 28 22 19 23 27 41 31 23 19 20 19 18 20 17 16
27 28 29 27 25 22 21 21 23 23 21 21 20 22 22 22 21 15 27 32 30 15 33 25 30 39 38 42 41 35 33 33 31 21 17 21 27 31 30 26 28 22 26 22 27 20 20
29 26 29 29 27 23 21 20 23 23 23 22 20 20 20 21 24 23 32 32 1 18 21 27 28 32 35 30 27 20 22 26 37 32 26 15 18 22 20 22 24 26 33 33 32 29 27
32 29 29 29 28 24 22 21 22 22 23 23 21 22 22 24 27 21 17 19 16 18 16 21 26 24 29 29 29 28 23 27 24 21 16 24 29 29 32 30 36 36 41 41 38 34 42
32 31 31 30 28 26 22 21 22 21 21 21 19 19 22 23 23 20 28 27 26 29 34 28 32 26 28 35 32 26 37 20 31 29 37 28 27 36 39 31 35 37 31 29 35 36 43
31 33 32 31 29 27 23 22 20 20 21 21 16 17 19 22 19 22 24 24 25 27 28 22 28 25 31 32 32 35 35 40 21 30 31 37 33 10 18 21 18 28 22 32 22 25 27
31 33 32 31 30 30 24 23 21 19 20 21 17 15 18 20 21 20 22 25 24 24 20 17 30 35 35 37 45 47 34 38 37 23 43 33 29 37 18 24 26 30 24 7 24 22 17
Wind_Direction
244 248 249 251 254 254 255 257 245 227 197 192 190 194 199 201 201 201 201 206 203 202 206 215 216 216 217 177 143 194 197 183 173 163 158 154 105 117 135 192 104 250 284 281 88 328 14
241 244 247 250 251 253 251 250 238 216 203 196 194 194 192 195 200 203 205 208 211 213 215 222 233 237 238 235 249 102 171 191 178 157 148 155 130 187 135 228 178 202 293 254 175 285 5
237 239 242 243 249 252 255 252 246 232 214 214 209 201 199 199 200 202 207 216 219 223 228 235 246 248 260 263 243 239 174 198 186 178 156 177 148 131 151 231 257 229 219 166 270 295 307
239 239 239 241 242 247 250 254 252 247 234 222 221 224 214 211 218 217 218 222 226 233 239 245 258 268 272 275 266 253 193 207 195 183 148 152 164 140 172 205 244 238 224 168 355 237 327
237 240 240 241 242 242 244 247 248 246 243 241 237 232 233 230 226 228 228 230 233 237 240 244 258 268 276 272 280 266 208 205 202 191 169 162 162 121 143 223 212 254 274 340 0 347 336
235 237 239 240 240 243 242 241 243 243 242 243 243 244 240 237 237 238 237 238 240 241 243 243 248 260 269 271 271 272 228 213 201 191 183 171 151 89 180 221 240 225 225 308 359 334 302
233 234 236 238 239 239 240 241 239 240 243 241 240 242 244 242 240 241 240 242 244 246 248 248 246 252 265 274 267 259 263 225 214 200 190 165 127 161 235 259 183 306 340 48 290 286 311
235 234 234 235 237 238 237 236 238 238 237 239 240 241 244 245 246 246 246 245 247 248 250 249 248 251 255 261 262 262 268 244 225 216 198 191 155 234 253 254 283 349 353 249 240 272 304
235 235 236 235 236 237 237 236 235 236 238 239 240 240 243 245 246 248 248 248 247 248 248 249 250 251 251 249 253 262 266 247 224 219 211 196 185 263 266 239 250 231 250 343 316 288 272
233 232 234 235 237 238 239 239 237 237 237 239 242 242 244 247 246 249 248 249 249 249 252 252 250 249 252 254 256 260 258 240 220 219 207 222 243 201 245 244 222 257 251 257 272 267 323
233 233 233 234 235 238 240 240 240 239 242 243 243 245 243 245 245 245 244 244 243 246 252 257 246 252 252 250 243 247 244 236 224 211 218 219 234 282 238 240 207 259 302 254 250 269 292
233 234 234 233 234 236 237 237 238 239 241 242 245 246 247 248 245 243 240 237 237 238 251 259 259 251 247 243 248 252 242 230 224 209 217 198 224 230 245 246 226 234 257 271 281 280 274
235 234 235 234 234 235 237 237 236 239 240 243 246 248 247 246 244 240 235 233 231 227 230 264 266 251 248 243 243 243 241 234 230 227 225 217 235 211 245 243 255 232 258 233 242 256 257
235 234 235 235 234 234 235 236 235 238 242 243 246 247 244 240 234 231 227 228 229 218 222 263 261 256 246 245 237 240 237 228 221 225 228 230 228 212 229 226 220 245 241 233 249 322 323
233 234 236 237 236 236 235 235 235 236 238 241 245 244 239 234 230 229 228 228 217 209 212 242 239 244 243 240 237 225 241 234 227 221 214 226 249 234 246 240 200 215 238 235 283 314 303
232 233 235 236 235 235 235 235 233 232 234 235 238 236 233 230 229 231 233 224 202 207 220 225 215 216 235 222 220 222 238 240 224 228 205 198 236 249 247 233 224 189 226 242 249 271 252
229 230 231 233 233 234 232 231 229 228 231 230 237 238 234 230 231 232 230 216 217 229 239 231 225 189 231 224 220 223 237 233 233 222 233 198 215 235 226 236 212 194 218 231 228 233 265
229 228 228 230 229 230 230 229 226 227 230 232 238 236 238 234 232 232 226 221 218 218 240 228 224 203 191 203 227 233 220 236 237 206 229 212 204 218 235 227 209 221 228 235 243 276 281
228 227 226 226 225 224 225 224 222 225 230 234 236 238 238 238 229 222 221 224 223 235 240 225 219 219 197 183 210 231 229 231 235 237 212 217 191 199 218 229 220 214 238 243 235 251 265
223 225 225 223 223 224 227 225 223 226 230 231 231 231 231 234 236 236 212 237 236 239 233 224 215 206 214 202 191 223 204 238 232 235 214 214 186 199 222 230 240 220 242 230 227 241 285
222 221 220 222 225 229 229 231 231 232 230 229 226 226 240 209 227 229 228 233 234 233 233 226 225 218 211 209 205 214 218 236 253 236 230 215 200 184 234 196 201 229 248 210 236 240 256
221 221 223 225 226 227 230 233 230 230 229 227 229 232 233 246 234 234 239 252 246 234 215 239 223 216 220 201 204 220 218 223 252 239 222 211 203 189 205 249 202 214 219 196 238 243 262
223 221 223 225 229 229 229 233 229 227 228 229 225 229 230 236 237 242 252 238 208 228 216 205 202 193 196 221 214 204 194 198 241 248 228 212 205 200 202 195 239 227 223 235 237 243 265
224 223 222 224 227 229 230 235 229 228 228 226 226 228 229 230 227 217 244 240 209 191 223 212 210 205 192 207 216 211 188 189 210 229 228 213 206 205 210 224 223 222 226 237 240 235 231
225 227 222 222 223 226 228 233 228 228 225 224 227 230 232 230 231 232 227 241 257 214 222 231 233 212 213 211 220 216 219 212 208 213 198 200 225 212 217 231 234 227 231 229 225 234 226
225 226 221 219 221 223 227 230 227 228 227 226 231 237 234 230 231 244 240 240 232 217 209 219 222 213 206 201 204 208 252 233 214 201 203 193 216 214 207 223 230 226 219 229 230 232 233
227 225 219 218 218 220 225 227 223 225 225 225 233 232 231 230 236 228 221 215 217 218 203 206 198 193 198 201 203 220 222 201 199 174 182 215 215 227 236 218 240 243 259 289 243 231 240
221 219 216 216 215 217 222 224 223 224 224 223 230 231 231 230 232 227 227 218 217 223 231 239 169 200 203 200 201 247 216 232 229 214 210 208 217 218 242 262 245 256 267 232 245 259 250
216 216 216 216 216 216 217 221 223 224 224 223 226 236 233 231 230 230 228 221 218 229 219 198 197 202 196 203 212 214 229 234 237 220 220 226 216 226 209 233 230 249 247 233 253 222 312